Skip Page Navigation
NASA JPL Caltech
NASA Logo - Jet Propulsion Laboratory + View the NASA Portal
+ Center for Near-Earth Object Studies
JPL Home Earth Solar System Stars & Galaxies Technology
JPL Solar System Dynamics
BODIES ORBITS EPHEMERIDES TOOLS PHYSICAL DATA DISCOVERY FAQ SITE MAP
IMPORTANT: The SSD Announcement email list is now available. Major changes are coming in the near future, including possible hostname and/or URL changes. To be notified of such changes, subscribe to this email list.

Please visit this page for more details.


JPL Small-Body Database Browser
Search: [ help ]  
376608 (2013 PU36)
Classification: Main-belt Asteroid          SPK-ID: 2376608
Ephemeris | Orbit Diagram | Orbital Elements | Mission Design | Physical Parameters | Discovery Circumstances ]

[ show orbit diagram ]
Orbital Elements at Epoch 2459000.5 (2020-May-31.0) TDB
Reference: JPL 16 (heliocentric ecliptic J2000)
 Element Value Uncertainty (1-sigma)   Units 
e .04126516030295363 5.6507e-08  
a 2.222886537648165 1.7452e-08 au
q 2.131158768336836 1.2014e-07 au
i 3.811077515959993 4.9467e-06 deg
node 192.0588240288251 7.9996e-05 deg
peri 256.8274332282004 0.0001177 deg
M 265.8856090083125 9.1852e-05 deg
tp 2459316.966618003295
(2021-Apr-12.46661800)
0.00031126 TDB
period 1210.526692897037
3.31
1.4255e-05
3.903e-08
d
yr
n .2973912117034335 3.5022e-09 deg/d
Q 2.314614306959495 1.8172e-08 au
  Orbit Determination Parameters
   # obs. used (total)      200  
   data-arc span      6888 days (18.86 yr)  
   first obs. used      2000-09-21  
   last obs. used      2019-08-01  
   planetary ephem.      DE431  
   SB-pert. ephem.      SB431-N16  
   condition code      0  
   norm. resid. RMS      .59225  
   source      ORB  
   producer      Otto Matic  
   solution date      2020-Feb-26 02:47:09  

Additional Information
 Earth MOID = 1.15124 au 
 Jupiter MOID = 2.74277 au 
 T_jup = 3.644 
[ hide covariance matrix ]
Orbital Elements at Epoch 2457218.5 (2015-Jul-15.0) TDB
Reference: JPL 16 (heliocentric ecliptic J2000)
 Element Value Uncertainty (1-sigma)   Units 
e .04158445311918016 5.5996e-08  
q 2.130772962684346 1.1928e-07 au
tp 2456892.048563790851
(2014-Aug-22.54856379)
0.00029305 TDB
node 192.1198163938595 7.9962e-05 deg
peri 255.8126246147689 0.00011758 deg
i 3.811386774471071 4.9474e-06 deg
  Orbit Determination Parameters
   # obs. used (total)      200  
   data-arc span      6888 days (18.86 yr)  
   first obs. used      2000-09-21  
   last obs. used      2019-08-01  
   planetary ephem.      DE431  
   SB-pert. ephem.      SB431-N16  
   condition code      0  
   norm. resid. RMS      .59225  
   source      ORB  
   producer      Otto Matic  
   solution date      2020-Feb-26 02:47:09  

Additional Information
 Jupiter MOID = 2.74277 au 
 T_jup = 3.644 
Orbit Covariance (6×6)
  e q tp node peri i
e 3.13558647213534E-15 -6.622514500657439E-15 7.814696736377055E-12 -7.121400338310203E-14 2.266708668512321E-12 4.159580985788499E-16
q -6.622514500657439E-15 1.422695230044422E-14 -1.447394755883998E-11 1.503817291838891E-13 -4.177072046904437E-12 -1.11616388507496E-15
tp 7.814696736377055E-12 -1.447394755883998E-11 8.587712502034707E-8 -1.761376381659898E-10 2.52918245632628E-8 -1.794074445150385E-11
node -7.121400338310203E-14 1.503817291838891E-13 -1.761376381659898E-10 6.393964713322507E-9 -6.428418629963377E-9 -6.980294778706001E-11
peri 2.266708668512321E-12 -4.177072046904437E-12 2.52918245632628E-8 -6.428418629963377E-9 1.382539727124889E-8 6.435839142972242E-11
i 4.159580985788499E-16 -1.11616388507496E-15 -1.794074445150385E-11 -6.980294778706001E-11 6.435839142972242E-11 2.44771317800231E-11

Ephemeris | Orbit Diagram | Orbital Elements | Mission Design | Physical Parameters | Discovery Circumstances ]

Physical Parameter Table
Parameter Symbol Value Units Sigma Reference Notes
absolute magnitude H 17.4   n/a MPO476766  

376608 (2013 PU36)          Discovered 2002-Mar-17 by Spacewatch at Kitt Peak
Reference: Last Updated: 2013-10-21
Ephemeris | Orbit Diagram | Orbital Elements | Mission Design | Physical Parameters | Discovery Circumstances ]
ABOUT SSD CREDITS/AWARDS PRIVACY/COPYRIGHT GLOSSARY LINKS
FirstGov 2020-Apr-03 16:08 UT
(server date/time)  
NASA Home Page
Site Manager:   Ryan S. Park
Webmaster  Alan B. Chamberlin